User: anonymous   Login
Location: Newark
(58.9986°N, 38.5006°E)
Time: 04:22:07
(UTC+00:00)
Language:

Courier 1B Rocket - Orbit

View from above orbital plane
View from above orbital plane
View from above satellite
View from above satellite

Ground track
Ground track

The orbit data is extracted from the following two-line orbital elements,

1 00059U 60013B   21102.44110479  .00000110  00000-0  25598-4 0  9995
2 00059  28.2484 122.3622 0189046 275.6912  82.2107 13.52983497986882
Epoch (UTC): 12 April 2021 10:35:11
Eccentricity: 0.0189046
inclination: 28.2484°
perigee height: 920 km
apogee height: 1202 km
right ascension of ascending node: 122.3622°
argument of perigee: 275.6912°
revolutions per day: 13.52983497
mean anomaly at epoch: 82.2107°
orbit number at epoch: 98688

The dashed part of the orbit path shows where the satellite is in the earth's shadow,  

DLR